FW7000 Weather Reports


time (UTC)temp
C
wind
direction
speed
KPH
gust
KPH
rain 1hr
cm
rain 24hr
cm
rain mn
cm
humidity
%
barometer
mb
20260504000642 20 309 6.4 8.0 0.00 0.00 0.00 26 1011.6
20260504000139 20 236 4.8 8.0 0.00 0.00 0.00 24 1011.4
20260503235637 20 225 4.8 4.8 0.00 0.00 0.00 23 1011.2
20260503235133 20 270 6.4 8.0 0.00 0.00 0.00 21 1011.5
20260503234632 20 296 4.8 8.0 0.00 0.00 0.00 23 1011.2
20260503234129 21 310 6.4 8.0 0.00 0.00 0.00 23 1011.4
20260503233626 21 214 3.2 3.2 0.00 0.00 0.00 24 1011.5
20260503233122 20 233 6.4 8.0 0.00 0.00 0.00 23 1011.6
20260503232619 21 317 4.8 8.0 0.00 0.00 0.00 25 1011.2
20260503232117 21 292 4.8 4.8 0.00 0.00 0.00 23 1011.2
20260503231614 21 295 4.8 4.8 0.00 0.00 0.00 23 1011.4
20260503231110 21 217 4.8 4.8 0.00 0.00 0.00 24 1011.5
20260503230607 21 230 4.8 4.8 0.00 0.00 0.00 23 1011.0
20260503230104 21 29 4.8 4.8 0.00 0.00 0.00 24 1011.5
20260503225601 21 228 4.8 8.0 0.00 0.00 0.00 24 1011.4
20260503225056 21 238 8.0 11.3 0.00 0.00 0.00 24 1011.0
20260503224555 21 289 3.2 3.2 0.00 0.00 0.00 25 1011.2
20260503224052 21 224 4.8 4.8 0.00 0.00 0.00 25 1011.2
20260503223550 21 242 4.8 4.8 0.00 0.00 0.00 24 1011.4
20260503223045 22 233 9.7 12.9 0.00 0.00 0.00 26 1011.2
20260503222544 21 227 4.8 8.0 0.00 0.00 0.00 25 1011.4
20260503222041 22 230 4.8 8.0 0.00 0.00 0.00 26 1011.4
20260503221539 22 30 6.4 9.7 0.00 0.00 0.00 26 1011.2
20260503221037 22 254 8.0 11.3 0.00 0.00 0.00 25 1011.2
20260503220532 22 221 0.0 1.6 0.00 0.00 0.00 25 1010.9
20260503220029 22 215 4.8 4.8 0.00 0.00 0.00 29 1011.1
20260503215526 22 249 8.0 11.3 0.00 0.00 0.00 28 1010.9
20260503215024 22 251 4.8 4.8 0.00 0.00 0.00 30 1011.1
20260503214522 22 217 4.8 4.8 0.00 0.00 0.00 31 1011.1
20260503214018 22 247 3.2 3.2 0.00 0.00 0.00 32 1010.9
20260503213517 22 263 4.8 8.0 0.00 0.00 0.00 33 1011.0
20260503213013 22 193 6.4 9.7 0.00 0.00 0.00 30 1010.9
20260503212510 22 267 4.8 4.8 0.00 0.00 0.00 31 1010.9
20260503212008 22 231 4.8 8.0 0.00 0.00 0.00 29 1011.1
20260503211505 22 303 6.4 8.0 0.00 0.00 0.00 30 1011.1
20260503211000 22 313 3.2 3.2 0.00 0.00 0.00 33 1011.0
20260503210457 22 217 6.4 9.7 0.00 0.00 0.00 31 1011.2
20260503205957 22 242 6.4 9.7 0.00 0.00 0.00 29 1011.0
20260503205454 22 264 8.0 11.3 0.00 0.00 0.00 28 1011.0
20260503204951 22 220 4.8 4.8 0.00 0.00 0.00 32 1011.1
20260503204448 22 286 8.0 11.3 0.00 0.00 0.00 32 1011.2
20260503203944 22 210 4.8 8.0 0.00 0.00 0.00 34 1011.1
20260503203442 22 310 3.2 4.8 0.00 0.00 0.00 36 1011.0
20260503202939 22 256 4.8 8.0 0.00 0.00 0.00 34 1011.5
20260503202437 22 269 6.4 8.0 0.00 0.00 0.00 35 1011.4
20260503201935 22 0 6.4 9.7 0.00 0.00 0.00 36 1011.5
20260503201432 21 284 6.4 8.0 0.00 0.00 0.00 33 1011.5
20260503200930 22 248 4.8 4.8 0.00 0.00 0.00 33 1011.6
20260503200426 22 227 3.2 8.0 0.00 0.00 0.00 33 1011.6
20260503195923 22 217 4.8 8.0 0.00 0.00 0.00 32 1011.8
20260503195420 22 220 8.0 11.3 0.00 0.00 0.00 32 1011.8
20260503194916 22 35 9.7 11.3 0.00 0.00 0.00 33 1011.5
20260503194413 22 21 8.0 9.7 0.00 0.00 0.00 33 1011.5
20260503193909 22 102 1.6 3.2 0.00 0.00 0.00 34 1011.7
20260503193404 21 322 6.4 9.7 0.00 0.00 0.00 34 1011.6
20260503192900 22 198 6.4 9.7 0.00 0.00 0.00 34 1011.6
20260503192356 22 322 4.8 11.3 0.00 0.00 0.00 36 1011.8
20260503191853 21 286 8.0 11.3 0.00 0.00 0.00 36 1011.9
20260503191350 21 302 3.2 4.8 0.00 0.00 0.00 36 1011.8
20260503190846 21 306 4.8 8.0 0.00 0.00 0.00 36 1012.0
20260503190344 21 267 12.9 14.5 0.00 0.00 0.00 36 1011.8
20260503185841 21 177 1.6 3.2 0.00 0.00 0.00 37 1011.7
20260503185337 21 251 4.8 4.8 0.00 0.00 0.00 37 1011.6
20260503184837 21 257 4.8 8.0 0.00 0.00 0.00 36 1012.0
20260503184333 21 337 8.0 9.7 0.00 0.00 0.00 37 1011.9
20260503183829 21 219 3.2 4.8 0.00 0.00 0.00 38 1012.0
20260503183326 21 2 3.2 3.2 0.00 0.00 0.00 39 1012.0
20260503182823 21 279 3.2 3.2 0.00 0.00 0.00 39 1012.1
20260503182323 20 219 3.2 3.2 0.00 0.00 0.00 39 1012.0
20260503181819 20 227 4.8 8.0 0.00 0.00 0.00 40 1012.3
20260503181317 20 183 4.8 4.8 0.00 0.00 0.00 41 1012.1
20260503180813 20 217 4.8 4.8 0.00 0.00 0.00 41 1012.2
20260503180311 20 230 1.6 1.6 0.00 0.00 0.00 39 1012.2
20260503175807 20 223 8.0 9.7 0.00 0.00 0.00 39 1012.3
20260503175305 20 275 4.8 8.0 0.00 0.00 0.00 41 1012.3
20260503174800 20 308 4.8 4.8 0.00 0.00 0.00 39 1012.4
20260503174259 20 225 3.2 3.2 0.00 0.00 0.00 42 1012.5
20260503173754 20 215 1.6 3.2 0.00 0.00 0.00 42 1012.5
20260503173250 19 222 1.6 3.2 0.00 0.00 0.00 46 1012.5
20260503172747 19 211 3.2 3.2 0.00 0.00 0.00 40 1012.7
20260503172244 19 278 3.2 3.2 0.00 0.00 0.00 42 1012.6
20260503171741 19 241 4.8 8.0 0.00 0.00 0.00 41 1012.6
20260503171238 19 242 4.8 4.8 0.00 0.00 0.00 40 1012.5
20260503170735 18 257 6.4 11.3 0.00 0.00 0.00 43 1012.8
20260503170231 18 236 9.7 11.3 0.00 0.00 0.00 42 1012.9
20260503160153 17 68 4.8 4.8 0.00 0.00 0.00 41 1012.8
20260503150623 16 211 4.8 8.0 0.00 0.00 0.00 46 1013.0
20260503150119 16 208 1.6 3.2 0.00 0.00 0.00 45 1013.0
20260503131013 13 182 1.6 1.6 0.00 0.00 0.00 55 1013.3
20260503130510 13 199 1.6 1.6 0.00 0.00 0.00 55 1013.5
20260503110401 10 219 0.0 0.0 0.00 0.00 0.00 75 1013.3
20260503090252 11 208 0.0 0.0 0.00 0.00 0.00 56 1014.2
20260503081220 11 211 1.6 1.6 0.00 0.00 0.00 55 1014.7
20260503080715 11 211 0.0 1.6 0.00 0.00 0.00 55 1014.9
20260503080213 12 193 0.0 0.0 0.00 0.00 0.00 57 1014.9
20260503072649 12 217 1.6 3.2 0.00 0.00 0.00 56 1015.0
20260503072146 12 186 3.2 3.2 0.00 0.00 0.00 55 1015.2
20260503071643 12 184 1.6 1.6 0.00 0.00 0.00 55 1015.5
20260503071139 12 218 1.6 1.6 0.00 0.00 0.00 55 1015.2
20260503070636 13 210 0.0 0.0 0.00 0.00 0.00 55 1015.6
20260503070135 13 207 1.6 1.6 0.00 0.00 0.00 55 1015.6
20260503055049 13 231 0.0 0.0 0.00 0.00 0.00 55 1016.7
20260503054545 14 235 1.6 1.6 0.00 0.00 0.00 55 1016.7
20260503054043 14 218 1.6 1.6 0.00 0.00 0.00 52 1016.8
20260503053541 13 2 9.7 14.5 0.00 0.00 0.00 56 1017.1
20260503053038 13 212 0.0 0.0 0.00 0.00 0.00 55 1016.9
20260503052535 13 211 0.0 0.0 0.00 0.00 0.00 54 1017.0
20260503052031 13 212 0.0 0.0 0.00 0.00 0.00 52 1016.9
20260503051527 13 217 1.6 1.6 0.00 0.00 0.00 53 1016.9
20260503051025 13 215 0.0 0.0 0.00 0.00 0.00 53 1017.0
20260503050520 13 213 0.0 0.0 0.00 0.00 0.00 52 1016.7
20260503050018 13 214 0.0 1.6 0.00 0.00 0.00 52 1017.0
20260503045515 13 217 0.0 0.0 0.00 0.00 0.00 51 1016.7
20260503045012 13 210 1.6 1.6 0.00 0.00 0.00 50 1016.7
20260503044509 13 209 0.0 0.0 0.00 0.00 0.00 50 1016.9
20260503044006 13 215 0.0 0.0 0.00 0.00 0.00 50 1017.3
20260503043502 13 218 0.0 0.0 0.00 0.00 0.00 49 1017.3
20260503042959 13 221 1.6 1.6 0.00 0.00 0.00 49 1017.2
20260503042456 13 217 0.0 0.0 0.00 0.00 0.00 52 1017.3
20260503041952 13 223 0.0 1.6 0.00 0.00 0.00 50 1017.1
20260503041449 13 217 0.0 0.0 0.00 0.00 0.00 52 1017.4
20260503040947 13 220 0.0 0.0 0.00 0.00 0.00 52 1017.2
20260503040444 13 217 0.0 0.0 0.00 0.00 0.00 51 1017.3
20260503035941 13 212 0.0 0.0 0.00 0.00 0.00 51 1017.5
20260503035437 13 212 0.0 0.0 0.00 0.00 0.00 52 1017.7
20260503034935 13 214 0.0 0.0 0.00 0.00 0.00 51 1017.7
20260503034427 13 212 0.0 1.6 0.00 0.00 0.00 51 1017.8
20260503033924 13 209 1.6 1.6 0.00 0.00 0.00 50 1017.9
20260503033421 13 220 0.0 0.0 0.00 0.00 0.00 50 1018.2
20260503032919 13 211 0.0 0.0 0.00 0.00 0.00 51 1017.9
20260503032418 13 217 0.0 0.0 0.00 0.00 0.00 51 1018.2
20260503031915 13 220 0.0 0.0 0.00 0.00 0.00 51 1018.1
20260503031412 13 211 0.0 1.6 0.00 0.00 0.00 51 1018.1
20260503030909 13 214 0.0 1.6 0.00 0.00 0.00 50 1018.2
20260503030405 13 199 3.2 4.8 0.00 0.00 0.00 46 1018.3
20260503025901 13 213 1.6 1.6 0.00 0.00 0.00 50 1018.2
20260503025353 13 216 1.6 1.6 0.00 0.00 0.00 52 1018.2
20260503024850 13 216 0.0 0.0 0.00 0.00 0.00 52 1018.2
20260503024346 13 213 0.0 0.0 0.00 0.00 0.00 51 1018.3
20260503023843 13 212 0.0 0.0 0.00 0.00 0.00 50 1018.3
20260503023341 13 215 0.0 0.0 0.00 0.00 0.00 49 1018.4
20260503022837 13 211 0.0 0.0 0.00 0.00 0.00 48 1018.5
20260503022332 13 213 0.0 0.0 0.00 0.00 0.00 48 1018.3
20260503021829 13 207 0.0 0.0 0.00 0.00 0.00 47 1018.4
20260503021325 13 216 0.0 0.0 0.00 0.00 0.00 47 1018.5
20260503020822 13 210 1.6 3.2 0.00 0.00 0.00 44 1018.5
20260503020321 13 211 0.0 0.0 0.00 0.00 0.00 48 1018.5
20260503015817 13 206 1.6 1.6 0.00 0.00 0.00 50 1018.5
20260503015314 13 192 1.6 1.6 0.00 0.00 0.00 49 1018.3
20260503014809 13 210 0.0 0.0 0.00 0.00 0.00 47 1018.6
20260503014307 13 216 0.0 0.0 0.00 0.00 0.00 47 1018.5
20260503013804 14 214 0.0 0.0 0.00 0.00 0.00 46 1018.6
20260503013302 14 208 1.6 1.6 0.00 0.00 0.00 45 1018.3
20260503012759 14 208 1.6 1.6 0.00 0.00 0.00 44 1018.6
20260503012256 15 211 0.0 0.0 0.00 0.00 0.00 43 1018.6
20260503011753 15 194 1.6 1.6 0.00 0.00 0.00 43 1018.6
20260503011250 15 211 0.0 0.0 0.00 0.00 0.00 43 1018.5
20260503010746 15 215 0.0 0.0 0.00 0.00 0.00 41 1018.7
20260503010243 15 197 1.6 1.6 0.00 0.00 0.00 43 1018.7
20260503005740 15 212 0.0 0.0 0.00 0.00 0.00 43 1018.6
20260503005237 15 216 0.0 0.0 0.00 0.00 0.00 46 1018.5
20260503004733 15 216 0.0 0.0 0.00 0.00 0.00 42 1018.7
20260503004232 15 214 0.0 0.0 0.00 0.00 0.00 41 1018.7
20260503003729 15 202 1.6 1.6 0.00 0.00 0.00 40 1018.8
20260503003226 15 219 1.6 1.6 0.00 0.00 0.00 39 1018.9
20260503002722 15 228 3.2 3.2 0.00 0.00 0.00 39 1018.7
20260503002219 15 213 1.6 1.6 0.00 0.00 0.00 38 1019.0
20260503001714 15 208 1.6 3.2 0.00 0.00 0.00 38 1019.2
20260503001212 15 209 3.2 3.2 0.00 0.00 0.00 38 1019.2